Location: Atherton
(17.2661°S, 145.4859°E)
Time: 22:39:17
(UTC+10:00)

Transit 2A - Pass Details

Date: 18 June 2025
Orbit: 598 x 948 km, 66.7° (Epoch: 19 July)

Event Time Altitude Azimuth Distance (km) Brightness Sun altitude
Rises 10:23:54 0° 1° (N) 3,318 9.9 40.5°
Reaches altitude 10° 10:26:28 10° 11° (N) 2,446 9.6 40.9°
Maximum altitude 10:31:31 33° 74° (ENE) 1,451 8.6 41.6°
Drops below altitude 10° 10:36:56 10° 135° (SE) 2,633 8.8 42.3°
Sets 10:39:46 0° 144° (SE) 3,608 9.3 42.6°
